ALA2996 KFLL-KPBI

Flight info

Callsign ALA2996
Flight time 0h 15m
Altitude 5000
Route DCT UGLEE DCT
Aircraft C208/L-SDFGR/C

Departure

Time 2026-04-19 03:15
Airport Fort Lauderdale Hollywood International Airport (KFLL)

Arrival

Time 2026-04-19 03:31
Airport Palm Beach International Airport (KPBI)
Time Latitude Longitude Altitude Speed Heading
2026-04-19 03:10 26.07885 -80.15638 14 ft 0 kts 348°
2026-04-19 03:13 26.07888 -80.15639 14 ft 6 kts 343°
2026-04-19 03:13 26.07903 -80.15659 14 ft 4 kts 271°
2026-04-19 03:13 26.07846 -80.15703 13 ft 13 kts 178°
2026-04-19 03:14 26.07781 -80.15718 13 ft 0 kts 192°
2026-04-19 03:14 26.07752 -80.15714 13 ft 8 kts 153°
2026-04-19 03:14 26.07704 -80.15670 11 ft 11 kts 137°
2026-04-19 03:14 26.07688 -80.15509 9 ft 57 kts 90°
2026-04-19 03:15 26.07682 -80.14877 202 ft 95 kts 91°
2026-04-19 03:15 26.07688 -80.14087 496 ft 106 kts 87°
2026-04-19 03:15 26.07845 -80.13298 881 ft 106 kts 56°
2026-04-19 03:15 26.08514 -80.12882 1149 ft 119 kts 19°
2026-04-19 03:16 26.09369 -80.12899 1486 ft 125 kts 358°
2026-04-19 03:16 26.10218 -80.12980 1980 ft 122 kts 359°
2026-04-19 03:16 26.11058 -80.13054 2390 ft 124 kts
2026-04-19 03:16 26.11909 -80.13122 2839 ft 122 kts 359°
2026-04-19 03:17 26.12763 -80.13179 3244 ft 123 kts 359°
2026-04-19 03:17 26.13618 -80.13221 3653 ft 122 kts 359°
2026-04-19 03:17 26.14464 -80.13248 4080 ft 121 kts 359°
2026-04-19 03:17 26.15300 -80.13225 4505 ft 120 kts
2026-04-19 03:18 26.16123 -80.13134 4907 ft 119 kts
2026-04-19 03:18 26.16986 -80.13041 5090 ft 136 kts
2026-04-19 03:18 26.17976 -80.12927 5102 ft 150 kts
2026-04-19 03:18 26.19025 -80.12808 5105 ft 157 kts
2026-04-19 03:19 26.20125 -80.12717 5099 ft 160 kts
2026-04-19 03:19 26.21245 -80.12633 5101 ft 162 kts
2026-04-19 03:19 26.22370 -80.12549 5096 ft 162 kts
2026-04-19 03:19 26.23486 -80.12465 5095 ft 161 kts
2026-04-19 03:20 26.24602 -80.12377 5094 ft 160 kts
2026-04-19 03:20 26.25713 -80.12290 5092 ft 160 kts
2026-04-19 03:20 26.26828 -80.12204 5092 ft 161 kts
2026-04-19 03:20 26.27931 -80.12122 5095 ft 161 kts
2026-04-19 03:21 26.29062 -80.12036 5093 ft 161 kts
2026-04-19 03:21 26.30161 -80.11951 5092 ft 160 kts
2026-04-19 03:21 26.31272 -80.11862 5087 ft 160 kts
2026-04-19 03:21 26.32384 -80.11773 5105 ft 160 kts
2026-04-19 03:22 26.33495 -80.11685 5101 ft 161 kts
2026-04-19 03:22 26.34608 -80.11597 5100 ft 160 kts
2026-04-19 03:22 26.35719 -80.11510 5098 ft 160 kts
2026-04-19 03:22 26.36829 -80.11422 5101 ft 160 kts
2026-04-19 03:23 26.37940 -80.11332 5099 ft 160 kts
2026-04-19 03:23 26.39043 -80.11422 5100 ft 159 kts 351°
2026-04-19 03:23 26.40126 -80.11596 5098 ft 159 kts 351°
2026-04-19 03:23 26.41225 -80.11770 5101 ft 160 kts 351°
2026-04-19 03:24 26.42322 -80.11949 5095 ft 159 kts 351°
2026-04-19 03:24 26.43421 -80.12128 5100 ft 159 kts 351°
2026-04-19 03:24 26.44520 -80.12305 5096 ft 160 kts 351°
2026-04-19 03:24 26.45617 -80.12482 5098 ft 159 kts 351°
2026-04-19 03:25 26.46718 -80.12660 5096 ft 159 kts 351°
2026-04-19 03:25 26.47811 -80.12836 5096 ft 159 kts 351°
2026-04-19 03:25 26.48907 -80.13014 5093 ft 159 kts 351°
2026-04-19 03:25 26.50001 -80.13192 5092 ft 160 kts 351°
2026-04-19 03:26 26.51087 -80.13363 5096 ft 160 kts 351°
2026-04-19 03:26 26.52187 -80.13536 5094 ft 159 kts 351°
2026-04-19 03:26 26.53272 -80.13762 5088 ft 159 kts 340°
2026-04-19 03:26 26.54262 -80.14305 5092 ft 159 kts 332°
2026-04-19 03:27 26.55327 -80.14537 5097 ft 160 kts
2026-04-19 03:27 26.56431 -80.14351 5060 ft 163 kts
2026-04-19 03:27 26.57585 -80.14154 4768 ft 167 kts
2026-04-19 03:27 26.58652 -80.13969 4451 ft 150 kts
2026-04-19 03:28 26.59678 -80.13812 4156 ft 151 kts
2026-04-19 03:28 26.60718 -80.13659 3858 ft 150 kts
2026-04-19 03:28 26.61661 -80.13225 3566 ft 150 kts 45°
2026-04-19 03:28 26.62310 -80.12334 3242 ft 151 kts 52°
2026-04-19 03:29 26.63010 -80.11371 2606 ft 163 kts 54°
2026-04-19 03:29 26.63563 -80.10404 2022 ft 137 kts 62°
2026-04-19 03:29 26.64051 -80.09525 1360 ft 129 kts 61°
2026-04-19 03:29 26.64651 -80.08800 994 ft 131 kts 35°
2026-04-19 03:30 26.65389 -80.08415 869 ft 104 kts 26°
2026-04-19 03:30 26.66086 -80.08253 654 ft 104 kts 12°
2026-04-19 03:30 26.66801 -80.08248 474 ft 103 kts 358°
2026-04-19 03:30 26.67480 -80.08545 221 ft 103 kts 329°
2026-04-19 03:31 26.67964 -80.09047 44 ft 87 kts 318°
2026-04-19 03:31 26.68311 -80.09425 24 ft 36 kts 315°
2026-04-19 03:31 26.68468 -80.09606 26 ft 34 kts 316°
2026-04-19 03:31 26.68600 -80.09740 27 ft 17 kts 347°
2026-04-19 03:32 26.68649 -80.09699 27 ft 9 kts 61°
2026-04-19 03:32 26.68668 -80.09625 27 ft 11 kts 66°
2026-04-19 03:32 26.68708 -80.09535 26 ft 12 kts 108°
2026-04-19 03:32 26.68718 -80.09465 25 ft 8 kts 81°
2026-04-19 03:33 26.68695 -80.09397 25 ft 8 kts 113°
2026-04-19 03:33 26.68691 -80.09386 25 ft 0 kts 114°